Flag for Germany Weather past 2 weeks in Weyhe, Lower Saxony, Germany

Now
63 °F

Broken clouds.


Feels Like: 63 °F
Forecast: 58 / 66 °F
Wind: 12 mph from Southwest

Location: Bremen Airport

Current Time: Aug 29, 2014 at 10:31:22 AM

Latest Report: Aug 29, 2014 at 9:50 AM


Visibility: 4 mi

Pressure: 29.92 "Hg

Humidity: 88%

Dew point: 59 °F

Location of WeyheLocation

Historic Weather in Weyhe — Graph

°F

Weyhe temperature yesterday

Maximum temperature yesterday: 75 °F (at 2:50 PM)
Minimum temperature yesterday: 46 °F (at 6:20 AM)
Average temperature yesterday: 62 °F

Past Weeks' High & Low Weather Summary

 TemperatureHumidityPressure
High75 °F (Aug 28, 2:50 PM)100% (Aug 15, 3:20 AM)30.04 "Hg (Aug 15, 3:20 AM)
Low43 °F (Aug 25, 4:50 AM)33% (Aug 27, 2:20 PM)29.53 "Hg (Aug 18, 6:20 AM)
Average57 °F79%29.86 "Hg
* Reported Aug 14 9:20 AM — Aug 29 9:20 AM, Weyhe, Weather by CustomWeather, © 2014

Note: Actual official high and low records may vary slightly from our data, if they occured in-between our weather recording intervals... More about our weather records

Advertising

Weyhe weather history for previous 24 hours

 ConditionsComfort  
Time TempWeatherWind HumidityBarometerVisibility
9:20 AM
Aug 29
63 °FPartly sunny.9 mph88%29.92 "Hg4 mi
8:50 AM63 °FPartly sunny.7 mph88%29.92 "Hg4 mi
8:20 AM63 °FPartly sunny.9 mph88%29.92 "Hg4 mi
7:50 AM63 °FPartly sunny.5 mph94%29.92 "Hg4 mi
7:20 AM63 °FLight rain. Passing clouds.6 mph94%29.89 "Hg4 mi
6:50 AM63 °FLight rain. Passing clouds.7 mph94%29.89 "Hg4 mi
6:20 AM63 °FPassing clouds.6 mph94%29.89 "Hg6 mi
5:50 AM61 °FLight rain. Passing clouds.3 mph94%29.89 "HgN/A
5:20 AM61 °FLight rain. Passing clouds.3 mph94%29.89 "HgN/A
4:50 AM61 °FLight rain. Passing clouds.3 mph94%29.89 "HgN/A
4:20 AM61 °FPassing clouds.3 mph94%29.89 "HgN/A
3:20 AM63 °FPassing clouds.5 mph88%29.89 "HgN/A
2:50 AM63 °FPassing clouds.5 mph88%29.89 "HgN/A
2:20 AM63 °FPassing clouds.6 mph88%29.92 "HgN/A
1:50 AM64 °FPassing clouds.5 mph83%29.92 "HgN/A
1:20 AM63 °FPartly cloudy.5 mph88%29.92 "HgN/A
12:50 AM64 °FPassing clouds.7 mph83%29.92 "HgN/A
12:20 AM64 °FLight rain. Partly cloudy.5 mph83%29.92 "HgN/A
11:50 PM
Aug 28
64 °FLight rain. Clear.5 mph83%29.92 "HgN/A
11:20 PM64 °FLight rain. Clear.3 mph88%29.92 "HgN/A
10:50 PM64 °FLight rain. Passing clouds.2 mph88%29.92 "HgN/A
10:20 PM66 °FLight rain. Clear.7 mph78%29.95 "HgN/A
9:50 PM66 °FPartly cloudy.8 mph78%29.95 "HgN/A
9:20 PM68 °FSunny.3 mph69%29.92 "Hg10 mi
8:50 PM68 °FSunny.3 mph69%29.92 "Hg10 mi
8:20 PM70 °FSunny.5 mph64%29.92 "Hg10 mi
7:50 PM68 °FSunny.3 mph69%29.92 "Hg10 mi
7:20 PM70 °FSunny.6 mph64%29.92 "Hg10 mi
6:50 PM72 °FBroken clouds.5 mph61%29.92 "HgN/A
6:20 PM72 °FBroken clouds.8 mph57%29.92 "HgN/A
5:50 PM73 °FBroken clouds.8 mph53%29.92 "HgN/A
5:20 PM73 °FPassing clouds.7 mph50%29.95 "HgN/A
4:50 PM73 °FPassing clouds.9 mph50%29.95 "HgN/A
4:20 PM75 °FPassing clouds.9 mph47%29.95 "HgN/A
3:50 PM73 °FSunny.10 mph50%29.95 "Hg10 mi
3:20 PM75 °FPassing clouds.10 mph47%29.95 "HgN/A
2:50 PM75 °FPassing clouds.8 mph41%29.98 "HgN/A
2:20 PM73 °FPassing clouds.8 mph41%29.98 "HgN/A
1:50 PM73 °FPassing clouds.9 mph41%29.98 "HgN/A
1:20 PM73 °FPassing clouds.10 mph38%29.98 "HgN/A
12:50 PM72 °FPassing clouds.9 mph36%29.98 "HgN/A
12:20 PM72 °FPassing clouds.12 mph38%30.01 "HgN/A
11:50 AM70 °FPassing clouds.14 mph40%30.01 "HgN/A
11:20 AM70 °FPassing clouds.9 mph46%30.01 "HgN/A
10:50 AM66 °FPassing clouds.7 mph56%30.01 "HgN/A
10:20 AM64 °FPassing clouds.6 mph60%30.01 "HgN/A
Weather by CustomWeather, © 2014

See weather overviewHow to use our weather pages